| time (UTC) | temp F | wind direction | speed MPH | gust MPH | rain 1hr in | rain 24hr in | rain mn in | humidity % | barometer mb |
| 20260505073006 | 43 | 207 | 6.0 | 13.0 | 0.00 | 0.22 | 0.00 | 88 | 1010.6 |
| 20260505071505 | 43 | 205 | 7.0 | 16.0 | 0.00 | 0.22 | 0.00 | 88 | 1010.4 |
| 20260505070006 | 43 | 226 | 6.0 | 13.0 | 0.00 | 0.24 | 0.00 | 89 | 1010.1 |
| 20260505064501 | 43 | 234 | 7.0 | 15.0 | 0.00 | 0.24 | 0.00 | 89 | 1009.9 |
| 20260505063058 | 43 | 265 | 5.0 | 13.0 | 0.00 | 0.24 | 0.00 | 89 | 1009.8 |
| 20260505061600 | 42 | 191 | 7.0 | 15.0 | 0.00 | 0.24 | 0.00 | 89 | 1009.4 |
| 20260505060053 | 43 | 236 | 5.0 | 11.0 | 0.00 | 0.24 | 0.00 | 89 | 1009.2 |
| 20260505054551 | 42 | 203 | 5.0 | 11.0 | 0.00 | 0.28 | 0.00 | 89 | 1008.9 |
| 20260505053055 | 42 | 286 | 6.0 | 13.0 | 0.00 | 0.28 | 0.00 | 89 | 1008.8 |
| 20260505051547 | 42 | 214 | 5.0 | 11.0 | 0.00 | 0.28 | 0.00 | 88 | 1008.5 |
| 20260505041534 | 43 | 233 | 5.0 | 14.0 | 0.00 | 0.30 | 0.00 | 86 | 1007.6 |
| 20260505040031 | 44 | 204 | 6.0 | 14.0 | 0.00 | 0.30 | 0.00 | 86 | 1007.5 |
| 20260505034530 | 44 | 189 | 8.0 | 15.0 | 0.00 | 0.32 | 0.00 | 85 | 1007.3 |
| 20260505033037 | 44 | 218 | 8.0 | 14.0 | 0.00 | 0.32 | 0.00 | 85 | 1007.0 |
| 20260505031524 | 44 | 231 | 7.0 | 16.0 | 0.00 | 0.32 | 0.00 | 85 | 1006.9 |
| 20260505030026 | 44 | 232 | 6.0 | 15.0 | 0.00 | 0.32 | 0.00 | 85 | 1006.7 |
| 20260505024518 | 45 | 227 | 7.0 | 13.0 | 0.00 | 0.33 | 0.32 | 84 | 1006.5 |
| 20260505023017 | 45 | 230 | 7.0 | 14.0 | 0.00 | 0.33 | 0.32 | 84 | 1006.4 |
| 20260505021517 | 45 | 228 | 7.0 | 16.0 | 0.00 | 0.33 | 0.32 | 83 | 1006.3 |
| 20260505020015 | 46 | 225 | 9.0 | 17.0 | 0.00 | 0.33 | 0.32 | 83 | 1006.2 |
| 20260505014515 | 46 | 231 | 8.0 | 17.0 | 0.00 | 0.33 | 0.32 | 83 | 1006.0 |
| 20260505013012 | 46 | 220 | 8.0 | 20.0 | 0.00 | 0.33 | 0.32 | 82 | 1005.8 |
| 20260505011514 | 46 | 200 | 7.0 | 17.0 | 0.00 | 0.33 | 0.32 | 82 | 1005.7 |
| 20260505010009 | 46 | 215 | 8.0 | 16.0 | 0.00 | 0.33 | 0.32 | 82 | 1005.6 |
| 20260505004519 | 46 | 208 | 9.0 | 15.0 | 0.00 | 0.34 | 0.32 | 82 | 1005.6 |
| 20260505003107 | 45 | 199 | 6.0 | 12.0 | 0.00 | 0.34 | 0.32 | 82 | 1005.5 |
| 20260505001504 | 46 | 213 | 5.0 | 13.0 | 0.00 | 0.34 | 0.32 | 81 | 1005.4 |
| 20260505000005 | 46 | 206 | 6.0 | 16.0 | 0.00 | 0.35 | 0.32 | 80 | 1005.2 |
| 20260504234501 | 46 | 187 | 7.0 | 15.0 | 0.00 | 0.35 | 0.32 | 80 | 1004.8 |
| 20260504233058 | 47 | 240 | 6.0 | 16.0 | 0.00 | 0.35 | 0.32 | 79 | 1004.5 |
| 20260504231605 | 47 | 279 | 10.0 | 19.0 | 0.00 | 0.35 | 0.32 | 78 | 1004.3 |
| 20260504230055 | 47 | 234 | 11.0 | 21.0 | 0.00 | 0.35 | 0.32 | 72 | 1004.4 |
| 20260504224604 | 48 | 209 | 9.0 | 21.0 | 0.00 | 0.42 | 0.32 | 68 | 1004.1 |
| 20260504223052 | 47 | 211 | 7.0 | 15.0 | 0.00 | 0.42 | 0.32 | 72 | 1004.0 |
| 20260504221600 | 48 | 216 | 6.0 | 15.0 | 0.00 | 0.42 | 0.32 | 71 | 1003.7 |
| 20260504220053 | 50 | 236 | 8.0 | 16.0 | 0.00 | 0.42 | 0.32 | 67 | 1003.7 |
| 20260504214551 | 50 | 260 | 9.0 | 16.0 | 0.00 | 0.54 | 0.32 | 68 | 1003.6 |
| 20260504213052 | 51 | 218 | 5.0 | 13.0 | 0.00 | 0.54 | 0.32 | 67 | 1003.6 |
| 20260504211544 | 51 | 208 | 5.0 | 13.0 | 0.00 | 0.54 | 0.32 | 68 | 1003.6 |
| 20260504210052 | 50 | 239 | 7.0 | 13.0 | 0.00 | 0.54 | 0.32 | 70 | 1003.5 |
| 20260504204618 | 49 | 279 | 5.0 | 10.0 | 0.00 | 0.59 | 0.32 | 72 | 1003.2 |
| 20260504203037 | 49 | 246 | 4.0 | 13.0 | 0.00 | 0.59 | 0.32 | 72 | 1003.2 |
| 20260504201534 | 49 | 270 | 7.0 | 19.0 | 0.00 | 0.59 | 0.32 | 71 | 1003.0 |
| 20260504200038 | 49 | 239 | 8.0 | 17.0 | 0.00 | 0.59 | 0.32 | 70 | 1002.9 |
| 20260504194536 | 49 | 265 | 10.0 | 21.0 | 0.00 | 0.65 | 0.32 | 73 | 1002.6 |
| 20260504193031 | 48 | 199 | 9.0 | 17.0 | 0.00 | 0.65 | 0.32 | 75 | 1002.6 |
| 20260504191530 | 47 | 213 | 9.0 | 21.0 | 0.00 | 0.65 | 0.32 | 78 | 1002.4 |
| 20260504190030 | 49 | 298 | 14.0 | 23.0 | 0.00 | 0.65 | 0.32 | 73 | 1002.0 |
| 20260504184525 | 49 | 270 | 13.0 | 25.0 | 0.00 | 0.70 | 0.32 | 73 | 1001.7 |
| 20260504183022 | 49 | 229 | 13.0 | 28.0 | 0.00 | 0.70 | 0.32 | 76 | 1001.6 |
| 20260504181518 | 48 | 270 | 14.0 | 26.0 | 0.00 | 0.70 | 0.32 | 78 | 1001.4 |
| 20260504180016 | 47 | 239 | 13.0 | 26.0 | 0.00 | 0.70 | 0.32 | 79 | 1001.3 |
| 20260504174514 | 47 | 275 | 15.0 | 31.0 | 0.00 | 0.70 | 0.32 | 81 | 1001.0 |
| 20260504173009 | 45 | 200 | 14.0 | 26.0 | 0.00 | 0.70 | 0.32 | 83 | 1000.8 |
| 20260504171606 | 46 | 228 | 15.0 | 28.0 | 0.00 | 0.70 | 0.32 | 87 | 1000.6 |
| 20260504081530 | 37 | 270 | 22.0 | 36.0 | 0.02 | 0.50 | 0.13 | 99 | 983.0 |